Location: Chandolas
(44.4033°N, 4.2533°E)
Time: 11:38:56
(UTC+00:00)

Cosmos 1833 Rocket - Pass Details

Date: 15 November 2019
Orbit: 832 x 840 km, 71.0° (Epoch: 10 December)

Event Time Altitude Azimuth Distance (km) Brightness Sun altitude
Exits shadow 03:30:33 40° 42° (NE) 1,220 3.7 -33.5°
Drops below altitude 10° 03:34:06 10° 30° (NNE) 2,452 5.5 -32.9°
Sets 03:36:34 0° 28° (NNE) 3,391 6.3 -32.4°
